Location: Beddau
(51.5575°N, 3.3561°W)
Time: 10:53:30
(UTC+00:00)

SPOT 3 Rocket - Pass Details

Date: 03 March 2021
Orbit: 778 x 795 km, 98.7° (Epoch: 16 April)

Event Time Altitude Azimuth Distance (km) Brightness Sun altitude
Exits shadow 20:18:42 53° 113° (ESE) 968 3.6 -22.5°
Maximum altitude 20:19:35 62° 69° (ENE) 892 3.5 -22.6°
Drops below altitude 10° 20:24:45 10° 350° (N) 2,377 6.4 -23.3°
Sets 20:27:07 0° 347° (NNW) 3,312 7.2 -23.7°
